{"data":{"norad_id":67008,"intl_designator":"2025-293F","name":"STARLINK-36163","alt_names":[],"object_type":"PAYLOAD","status":"ACTIVE","operator":null,"country":"US","launch_date":"2025-12-10","launch_site_code":"AFWTR","launch_vehicle":null,"mission":null,"orbit_class":"UNKNOWN","rcs_meters":null,"size_class":null,"mass_kg":null,"dimensions":null,"purposes":["comms"],"wikipedia_slug":null,"has_3d_model":false,"image_url":null,"decayed_at":null,"tle_current":{"epoch":"2026-09-20T21:01:31.925280Z","epoch_age_seconds":48825,"freshness":"FRESH","line1":"1 67008U 25293F   26263.87606395 -.00001282  00000+0 -99699-4 0  9995","line2":"2 67008  70.0023 322.3741 0002806 267.0277  93.0561 14.98325535 44124","mean_motion":14.98325535,"eccentricity":0.0002806,"inclination_deg":70.0023,"raan_deg":322.3741,"arg_perigee_deg":267.0277,"mean_anomaly_deg":93.0561,"bstar":-9.9699e-5,"rev_number":4412,"period_min":96.107285523903,"perigee_km":570.11947062325,"apogee_km":574.01992662252,"semimajor_km":6950.2066986229,"source":"CELESTRAK","updated_at":"2026-09-21T09:00:36.069141Z"}}}